Flag for India Weather past 2 weeks in Kapurthala, Punjab, India

57 °F


Feels Like: 57 °F
Forecast: 49 / 77 °F
Wind: No wind

Location: Amritsar Airport

Current Time: Dec 1, 2015 at 9:54:02 AM

Latest Report: Dec 1, 2015 at 9:00 AM

Visibility: 0 mi

Pressure: 30.07 "Hg

Humidity: 100%

Dew point: 57 °F

Location of KapurthalaLocation

Historic Weather in Kapurthala — Graph


Kapurthala temperature yesterday

Maximum temperature yesterday: 77 °F (at 2:30 PM)
Minimum temperature yesterday: 57 °F (at 7:00 AM)
Average temperature yesterday: 64 °F

Past Weeks' High & Low Weather Summary

High82 °F (Nov 16, 3:30 PM)100% (Nov 21, 4:00 AM)30.18 "Hg (Nov 21, 4:00 AM)
Low48 °F (Nov 18, 6:30 AM)26% (Nov 25, 4:30 PM)29.89 "Hg (Nov 16, 4:30 PM)
Average63 °F67%30.01 "Hg
* Reported Nov 16 7:30 AM — Dec 1 7:30 AM, Kapurthala, Weather by CustomWeather, © 2015

Note: Actual official high and low records may vary slightly from our data, if they occured in-between our weather recording intervals... More about our weather records


Kapurthala weather history for previous 24 hours

Time TempWeatherWind HumidityBarometerVisibility
7:30 AM
Tue, Dec 1
52 °FFog.No wind100%30.04 "Hg1 mi
6:00 AM52 °FFog.No wind100%30.01 "Hg1 mi
5:00 AM54 °FFog.No wind100%30.01 "Hg1 mi
4:30 AM54 °FFog.No wind100%30.01 "Hg1 mi
4:00 AM54 °FFog.No wind100%30.01 "Hg1 mi
3:30 AM54 °FFog.No wind94%30.01 "Hg1 mi
3:00 AM54 °FFog.No wind100%30.01 "Hg1 mi
2:30 AM54 °FFog.No wind100%30.01 "Hg1 mi
2:00 AM55 °FFog.No wind94%30.01 "Hg1 mi
1:30 AM55 °FFog.No wind94%30.01 "Hg1 mi
1:00 AM57 °FFog.No wind88%30.01 "Hg1 mi
12:30 AM57 °FFog.No wind88%30.01 "Hg1 mi
12:00 AM59 °FFog.No wind88%30.04 "Hg1 mi
11:30 PM
Mon, Nov 30
59 °FFog.No wind82%30.04 "Hg1 mi
11:00 PM59 °FFog.No wind82%30.04 "Hg1 mi
10:30 PM59 °FFog.No wind88%30.04 "Hg1 mi
10:00 PM61 °FFog.No wind83%30.04 "Hg1 mi
9:30 PM59 °FFog.No wind94%30.04 "Hg1 mi
9:00 PM61 °FFog.No wind83%30.04 "Hg1 mi
8:30 PM63 °FFog.No wind77%30.04 "Hg1 mi
8:00 PM61 °FFog.No wind83%30.04 "Hg1 mi
7:30 PM63 °FFog.No wind77%30.04 "Hg1 mi
7:00 PM64 °FFog.No wind78%30.01 "Hg1 mi
6:30 PM68 °FPassing clouds.No wind64%30.01 "Hg2 mi
6:00 PM68 °FPassing clouds.No wind64%30.01 "Hg2 mi
5:30 PM70 °FScattered clouds.No wind60%30.01 "Hg2 mi
5:00 PM73 °FScattered clouds.No wind53%30.01 "Hg2 mi
4:30 PM75 °FScattered clouds.No wind50%30.01 "Hg2 mi
4:00 PM75 °FScattered clouds.No wind47%30.04 "Hg2 mi
3:00 PM75 °FScattered clouds.3 mph47%30.07 "Hg2 mi
2:30 PM77 °FScattered clouds.3 mph47%30.07 "Hg2 mi
2:00 PM75 °FScattered clouds.3 mph50%30.07 "Hg1 mi
10:30 AM68 °FFog.No wind73%30.18 "Hg1 mi
10:00 AM66 °FFog.2 mph78%30.15 "Hg1 mi
Weather by CustomWeather, © 2015

See weather overviewHow to use our weather pages